This is the latest recevied weather packets stored in our database for station/object HI8S-13. If no packets are shown the sender has not sent any weather packets the latest 10 day(s).
| Time | Temp. | Humidity | Pressure | Rain* | Wind** | Luminosity | Snow |
|---|---|---|---|---|---|---|---|
| 1777500511 | 27.22° C | 77% | 1011.8 hPa | 0 mm | - | - | - |
| 1777500209 | 27.22° C | 78% | 1011.8 hPa | 0 mm | - | - | - |
| 1777499914 | 26.67° C | 79% | 1011.8 hPa | 0 mm | - | - | - |
| 1777499616 | 26.67° C | 79% | 1011.8 hPa | 0 mm | - | - | - |
| 1777499308 | 26.67° C | 79% | 1011.7 hPa | 0 mm | - | - | - |
| 1777499012 | 26.67° C | 78% | 1011.8 hPa | 0 mm | - | - | - |
| 1777498709 | 26.11° C | 78% | 1011.7 hPa | 0 mm | - | - | - |
| 1777498414 | 26.11° C | 79% | 1011.6 hPa | 0 mm | - | - | - |
| 1777498115 | 26.11° C | 79% | 1011.6 hPa | 0 mm | - | - | - |
| 1777497811 | 26.11° C | 79% | 1011.8 hPa | 0 mm | - | - | - |
| 1777497507 | 25.56° C | 79% | 1011.9 hPa | 0 mm | - | - | - |
| 1777497212 | 25.56° C | 79% | 1011.7 hPa | 0 mm | - | - | - |
| 1777496908 | 26.11° C | 78% | 1011.8 hPa | 0 mm | - | - | - |
| 1777496606 | 26.11° C | 77% | 1011.9 hPa | 0 mm | - | - | - |
| 1777496312 | 26.67° C | 76% | 1011.8 hPa | 0 mm | - | - | - |
| 1777496008 | 27.22° C | 75% | 1011.9 hPa | 0 mm | - | - | - |
| 1777495710 | 27.78° C | 73% | 1011.8 hPa | 0 mm | - | - | - |
| 1777495406 | 29.44° C | 74% | 1011.9 hPa | 0 mm | - | - | - |
| 1777495109 | 29.44° C | 75% | 1011.6 hPa | 0 mm | - | - | - |
| 1777494805 | 30° C | 74% | 1011.6 hPa | 0 mm | - | - | - |
| 1777494512 | 30° C | 74% | 1011.6 hPa | 0 mm | - | - | - |
| 1777494208 | 30.56° C | 72% | 1011.6 hPa | 0 mm | - | - | - |
| 1777493913 | 30.56° C | 74% | 1011.6 hPa | 0 mm | - | - | - |
| 1777493609 | 30.56° C | 73% | 1011.6 hPa | 0 mm | - | - | - |
| 1777493307 | 30.56° C | 74% | 1011.5 hPa | 0 mm | - | - | - |
* Rain latest hour (hover to see other rain measurements)
** Current wind speed in m/s (hover to see current wind gust speed)